EST,Max TemperatureF,Mean TemperatureF,Min TemperatureF,Max Dew PointF,MeanDew PointF,Min DewpointF,Max Humidity, Mean Humidity, Min Humidity, Max Sea Level PressureIn, Mean Sea Level PressureIn, Min Sea Level PressureIn, Max VisibilityMiles, Mean VisibilityMiles, Min VisibilityMiles, Max Wind SpeedMPH, Mean Wind SpeedMPH, Max Gust SpeedMPH,PrecipitationIn, CloudCover, Events, WindDirDegrees
2012-2-1,49,43,37,41,33,31,89,80,70,30.17,30.06,29.86,10,10,6,15,8,22,0.00,6,,292
2012-2-2,44,39,34,34,32,31,92,80,67,30.42,30.30,30.17,10,9,5,13,2,16,0.00,7,,245
2012-2-3,40,39,37,34,31,28,85,78,70,30.51,30.46,30.41,10,8,5,10,3,14,0.00,8,,9
2012-2-4,47,37,27,29,27,25,85,65,45,30.40,30.30,30.20,10,10,9,12,5,15,0.00,1,,41
2012-2-5,42,33,24,30,26,21,92,74,55,30.31,30.25,30.18,10,9,4,10,3,14,0.00,2,,303
2012-2-6,37,34,31,32,31,29,89,82,75,30.21,30.14,30.08,10,8,5,21,10,26,0.00,6,,246
2012-2-7,38,34,30,34,26,17,85,70,54,30.39,30.31,30.15,10,10,9,13,5,17,0.00,8,,24
2012-2-8,34,28,22,20,16,12,71,61,51,30.39,30.34,30.26,10,10,10,16,5,22,0.00,2,,306
2012-2-9,36,33,29,22,20,18,63,55,47,30.26,30.18,30.07,10,10,10,26,13,31,0.00,1,,244
2012-2-10,35,25,15,32,24,8,96,79,61,30.13,29.94,29.84,10,4,0,23,13,29,0.14,8,Fog-Snow,280
2012-2-11,23,17,10,16,11,5,77,70,62,30.32,30.24,30.14,10,5,0,20,9,29,0.01,7,Snow,317
2012-2-12,33,28,23,18,16,13,68,60,51,30.27,30.22,30.18,10,10,10,18,13,28,0.00,4,,289
2012-2-13,35,32,28,23,17,12,63,52,41,30.17,30.08,29.93,10,10,3,17,11,23,T,4,Snow,237
2012-2-14,37,33,29,30,28,23,92,81,70,30.01,29.89,29.82,10,6,2,14,8,18,0.01,8,Snow,203
2012-2-15,48,42,35,36,33,28,85,73,60,30.14,30.07,30.00,10,8,2,15,10,20,0.03,7,Rain,178
2012-2-16,43,38,33,38,36,28,92,78,64,30.08,29.98,29.91,10,4,0,20,6,26,0.12,7,Fog-Rain,257
2012-2-17,43,39,34,34,27,22,82,64,46,30.15,30.08,29.96,10,9,2,21,9,25,T,5,Snow,258
2012-2-18,39,32,24,34,22,15,85,66,47,30.27,30.13,29.97,10,10,8,18,9,26,T,3,,328
2012-2-19,38,29,19,22,18,15,84,66,48,30.26,30.23,30.19,10,10,10,12,2,17,0.00,0,,28
2012-2-20,44,32,20,26,21,18,96,68,39,30.36,30.25,30.01,10,10,7,16,4,22,0.00,0,,132
2012-2-21,41,37,33,37,31,23,92,76,59,29.98,29.68,29.59,10,7,1,29,13,36,0.03,6,Snow,194
2012-2-22,43,39,34,35,31,24,85,75,64,29.66,29.49,29.41,10,8,1,25,13,36,0.10,6,Rain-Snow,250
2012-2-23,38,32,26,33,29,23,96,86,75,29.62,29.56,29.45,10,5,0,10,4,15,0.04,4,Fog-Snow,76
2012-2-24,36,33,30,32,29,25,96,80,64,29.81,29.59,29.35,10,3,0,21,11,30,0.34,8,Fog-Snow,333
2012-2-25,33,31,29,28,23,18,78,68,58,30.33,30.02,29.80,10,5,0,20,13,31,T,8,Fog-Snow,294
2012-2-26,42,30,18,26,21,14,84,67,50,30.38,30.21,30.03,10,10,10,28,9,35,0.05,2,,152
2012-2-27,45,39,33,31,23,21,65,60,54,30.48,30.26,30.04,10,10,10,25,16,35,0.00,7,,271
2012-2-28,41,33,25,30,25,21,81,66,51,30.50,30.34,30.02,10,10,9,21,5,25,0.01,7,Rain,120
2012-2-29,60,48,35,44,35,30,100,71,42,29.97,29.62,29.41,10,6,2,29,16,37,0.71,7,Rain-Snow-Thunderstorm,143